Regional Weather Roundup
Issued by NWS Sterling, VA

Home | Current Version | Previous Version | Graphics & Text | Print | Product List | Glossary On
Versions: 1 2 3 4 5 6 7 8 9 10 11 12 13 14 15 16 17 18 19 20 21 22 23 24 25 26 27 28 29 30 31 32 33 34 35 36 37 38 39 40 41 42
000
ASUS41 KLWX 252210
RWRLWX

REGIONAL WEATHER ROUNDUP
NATIONAL WEATHER SERVICE BALTIMORE MD/WASHINGTON DC
500 PM EST THU DEC 25 2014

Note: "FAIR" indicates few or no clouds below 12,000 feet
with no significant weather and/or obstructions to visibility.
 TC=TEMPERATURE CELSIUS

 * =Non NWS site. Station does not report precipitation (e.g. rain,
    snow, etc.), thunder, or fog.

DCZ001-MDZ009-015-VAZ040>042-051-053>054-252300-
WASHINGTON METRO

CITY           SKY/WX    TMP DP  RH WIND       PRES   REMARKS
WASHINGTON NAT PTCLDY    52  30  43 NW13      30.08R
DULLES         PTCLDY    46  30  53 NW7       30.09R
ANDREWS AFB    CLEAR     49  31  50 NW8       30.08R
FT BELVOIR     CLEAR     51  30  45 NW12      30.08R
QUANTICO       CLEAR     52  30  43 N6        30.09R
COLLEGE PARK*  CLEAR     50  30  46 W9G18     30.09R
LEESBURG*      CLEAR     46  34  61 NW7       30.09R
MANASSAS*      CLEAR     48  30  49 N7        30.08R
GAITHERSBURG*  CLEAR     45  28  53 W9        30.11R

$$

MDZ006>007-011-014-252300-
BALTIMORE METRO

CITY           SKY/WX    TMP DP  RH WIND       PRES   REMARKS
BWI AIRPORT    PTCLDY    49  29  46 W12G22    30.07R
MD SCIENCE CTR   N/A     50  30  46 MISG      30.06R
ANNAPOLIS      CLEAR     50  30  46 W8        30.08R
FORT MEADE*    CLEAR     46  32  57 W10       30.10R

$$

MDZ012-015-019>023-252300-
MARYLAND EASTERN SHORE

CITY           SKY/WX    TMP DP  RH WIND       PRES   REMARKS
OCEAN CITY     CLEAR     50  31  48 NW6       30.07R
SALISBURY      CLEAR     53  31  42 W5        30.07R
BAY BRIDGE AP*   N/A     50  32  50 W7        30.08R
CAMBRIDGE*     CLEAR     52  32  46 NW7       30.07R
EASTON*        CLEAR     50  36  57 CALM      30.11R

$$

MDZ017>025-252300-
SOUTHERN MARYLAND

CITY           SKY/WX    TMP DP  RH WIND       PRES   REMARKS
PATUXENT RIVER CLEAR     50  30  46 NW8       30.08R
ST INIGOES     CLEAR     50  32  50 CALM      30.07R
LEONARDTOWN*   CLEAR     52  30  43 W5        30.09R

$$

MDZ003>005-252300-
NORTH CENTRAL MARYLAND

CITY           SKY/WX    TMP DP  RH WIND       PRES   REMARKS
FREDERICK*     PTCLDY    48  27  43 NW8       30.11R
HAGERSTOWN APT PTCLDY    43  29  57 NW7       30.07R
WESTMINSTER*   CLEAR     45  30  57 W9G18     30.06R

$$

MDZ501>502-252300-
WESTERN MARYLAND

CITY           SKY/WX    TMP DP  RH WIND       PRES   REMARKS
OAKLAND*       CLOUDY    32 N/A N/A W8G17     30.04R WCI  25
CUMBERLAND*    CLOUDY    45  30  57 W3        30.14R

$$

VAZ025>031-252300-
SHENANDOAH VALLEY

CITY           SKY/WX    TMP DP  RH WIND       PRES   REMARKS
WINCHESTER*    CLEAR     43  28  56 NW9       30.09R
FRONT ROYAL*   FAIR      45  30  57 W8        30.08R
LURAY*         FAIR      48  32  53 W7        30.08R
NEW MARKET*    FAIR      43  31  64 CALM      30.08R
STAUNTON*      CLEAR     45  29  53 SW6       30.11R
WAYNESBORO*    FAIR      43  28  56 SW5       30.09R

$$

WVZ021-048>050-054>055-252300-
EASTERN WEST VIRGINIA PANHANDLE

CITY           SKY/WX    TMP DP  RH WIND       PRES   REMARKS
MARTINSBURG    PTCLDY    46  26  45 W14G25    30.09R
PETERSBURG*    PTCLDY    42  27  55 W9        30.12S

$$

VAZ036>039-050-252300-
CENTRAL FOOTHILLS

CITY           SKY/WX    TMP DP  RH WIND       PRES   REMARKS
CHARLOTTESVILL CLEAR     51  28  41 W5        30.08R
CULPEPER*      CLEAR     52  28  40 NW5       30.08R
ORANGE*        CLEAR     52  32  46 SW7       30.11R
GORDONSVILLE*  FAIR      49  31  50 W6        30.08R
WARRENTON*     FAIR      47  37  65 W5        30.07S

$$

VAZ055>057-252300-
NORTH AND CENTRAL PIEDMONT

CITY           SKY/WX    TMP DP  RH WIND       PRES   REMARKS
FREDERICKSBRG* CLEAR     52  33  47 SW3       30.08R
STAFFORD*      CLEAR     49  29  44 CALM      30.12R

$$

NCZ024-NYZ072-PAZ021-071-VAZ022-071-252300-
OTHER REGIONAL OBSERVATIONS

CITY           SKY/WX    TMP DP  RH WIND       PRES   REMARKS
NEW YORK CITY  PTCLDY    50  28  42 VRB6G22   29.95R
PHILADELPHIA   PTCLDY    51  29  42 W10       30.02R
PITTSBURGH     CLOUDY    39  28  64 W8        30.11R
ROANOKE        CLEAR     46  28  49 NW8       30.14R
RICHMOND       CLEAR     54  29  38 W6        30.09S
RALEIGH        CLEAR     53  31  42 VRB3      30.14R

$$

ANZ530>537-252300-
MARINE OBSERVATIONS

STATION/POSITION TIME  TEMP    WIND        PRES
                       AIR SEA DIR/SP/G
                 (UTC) (F)     (DEG/KT/KT) (MB)
THOMAS PT LIGHT  2200   50 43  300/ 15/ 17 1019.6R
BALT KEY BRIDGE  2200   50     270/ 15/ 16 1017.6R
COVE POINT       2200   52     330/ 12/ 14 1018.3R
LEWISETTA        2200   52 44     CALM     1018.4R
SOLOMONS ISLAND  2200      44                N/A
PINEY POINT      2200          310/  7/  7   N/A

$$



USA.gov is the U.S. government's official web portal to all federal, state and local government web resources and services.